星链-11307 (STARLINK-11307)

导读

STARLINK-11307是美国SpaceX公司星链(Starlink)星座的一颗卫星,于2024年9月20日发射升空,属于星链二代星座组网部署批次。星链系统旨在构建全球卫星互联网,为全球用户提供高速宽带接入服务,覆盖地面通信网络难以抵达的偏远区域,同时拓展航空、航运、应急通信等多场景应用,STARLINK-11307的入轨进一步扩充了星链星座的网络规模与覆盖能力。

Basic Information
目录编号:
61210
目录名称:
STARLINK-11307
国际标识:
2024-171L
轨道中心:
EARTH
卫星名称:
星链-11307
卫星全名:
星链-11307 (STARLINK-11307)
卫星状态:
在轨 (已飞行632 天)
发射日期:
2024-09-20 UTC
国别 :
美国 (US)
星等 :
--
Orbit Information
数据来源 国际轨道数据 AOE轨道数据
星历时间 2026-06-14T08:29:01+0800
19小时前
查看轨道信息
2026-06-14T00:00:00+0800
1天前
查看轨道信息
半长轴 6737.853km 6737.826km
偏心率 0.0000889 0.0000821
轨道倾角 53.160° 53.160°
近地点辐角 114.681° 123.956°
升交点赤经 61.741° 63.489°
平近点角 245.431° 37.462°
近地点 359.117km 359.135km
远地点 360.315km 360.243km
周期 91.736分钟 91.736分钟
每日圈数 15.697139 15.697235
Detailed Information
固有亮度:
5
最大亮度:
2.5
卫星平台:
Starlink V1.0
覆盖范围:
全球
运营商:
太空探索技术公司
运营商所在国:
美国
制造商(研发单位):
太空探索技术公司
制造商所在国:
美国
使用方式:
暂无
Satellite Introduction
Starlink 计划是 SpaceX 推出的全球卫星互联网项目,通过发射低轨道卫星,为全球尤其是偏远地区提供高速、低延迟的互联网服务。自 2019 年起,Starlink 已部署数千颗卫星,旨在缩小全球数字鸿沟,推动互联网普及。该项目还为军事、航空等行业提供通信支持,带来广泛经济效益。
2D Orbit Map
3D Orbit Map
Orbit Altitude Analysis Chart
Orbit Inclination Analysis Chart
Orbit Comprehensive Analysis Chart
View Comprehensive Chart